User: anonymous   Login
Location: Newark
(41.9000°N, 12.4833°E)
Time: 14:20:25
(UTC+00:00)
Language:

NOAA 18 - Orbit

View from above orbital plane
View from above orbital plane
View from above satellite
View from above satellite

Ground track
Ground track

The orbit data is extracted from the following two-line orbital elements,

1 28654U 05018A   19138.53770007  .00000073  00000-0  64541-4 0  9994
2 28654  99.0987 185.0354 0013191 264.3970  95.5696 14.12423988721115
Epoch (UTC): 18 May 2019 12:54:17
Eccentricity: 0.0013191
inclination: 99.0987°
perigee height: 841 km
apogee height: 860 km
right ascension of ascending node: 185.0354°
argument of perigee: 264.3970°
revolutions per day: 14.12423988
mean anomaly at epoch: 95.5696°
orbit number at epoch: 72111

The dashed part of the orbit path shows where the satellite is in the earth's shadow,  

DLR